Weather History for KENW - March, 2013

Change the Weather History Date:

Sunday, March 24, 2013

  Actual Average Record
Temperature  
Mean Temperature 34 °F -  
Max Temperature 37 °F 42 °F 70 °F (1963)
Min Temperature 30 °F 27 °F 2 °F (1974)
Degree Days  
Heating Degree Days 32    
Moisture  
Dew Point 26 °F    
Average Humidity 73    
Maximum Humidity 82    
Minimum Humidity 67    
Precipitation  
Precipitation 0.00 in - - ()
Sea Level Pressure  
Sea Level Pressure 29.86 in    
Wind  
Wind Speed 13 mph (NE)    
Max Wind Speed 23 mph    
Max Gust Speed 32 mph    
Visibility 10 miles    
Events      
Averages and records for this station are not official NWS values.
T = Trace of Precipitation, MM = Missing Value Source: NWS Daily Summary

Daily Weather History Graph

Daily Weather History Graph

Search for Another Location

Airport or City:

Trip Planner

Search our weather history database for the weather conditions in past years. The results will help you decide how hot, cold, wet, or windy it might be!

Date:

Astronomy

Mar. 24, 2013 Rise Set
Actual Time 6:47 AM CDT 7:08 PM CDT
Civil Twilight 6:19 AM CDT 7:37 PM CDT
Nautical Twilight 5:46 AM CDT 8:10 PM CDT
Astronomical Twilight 5:12 AM CDT 8:44 PM CDT
Moon 4:34 PM CDT (3/24) 5:00 AM CDT (3/24)
Length of Visible Light 13h 17m
Length of Day
12h 21m
Waxing Gibbous, 92% of the Moon is Illuminated
Mar 24
Waxing Gibbous
Mar 27
Full
Apr 2
Last Quarter
Apr 10
New
Apr 18
First Quarter

Hourly Weather History & Observations

Time (CDT) Temp. Windchill Dew Point Humidity Pressure Visibility Wind Dir Wind Speed Gust Speed Precip Events Conditions
12:53 AM 30.9 °F 27.5 °F 21.9 °F 69% 30.06 in 10.0 mi NNE 3.5 mph - N/A   Overcast
1:53 AM 30.9 °F 25.2 °F 23.0 °F 72% 30.05 in 10.0 mi NNE 5.8 mph - N/A   Overcast
2:53 AM 30.9 °F 25.2 °F 24.1 °F 76% 30.02 in 10.0 mi NNE 5.8 mph - N/A   Overcast
3:53 AM 32.0 °F 24.2 °F 25.0 °F 75% 30.00 in 10.0 mi NE 9.2 mph - N/A   Overcast
4:53 AM 32.0 °F 24.2 °F 27.0 °F 82% 29.98 in 10.0 mi ENE 9.2 mph - N/A   Overcast
5:35 AM 33.8 °F 24.8 °F 26.6 °F 75% 29.95 in 10.0 mi ENE 12.7 mph - N/A   Overcast
5:53 AM 33.1 °F 23.0 °F 25.0 °F 72% 29.96 in 10.0 mi ENE 15.0 mph - N/A   Overcast
6:08 AM 33.8 °F 23.5 °F 24.8 °F 70% 29.93 in 10.0 mi East 16.1 mph - N/A   Overcast
6:44 AM 32.0 °F 20.5 °F 24.8 °F 75% 29.93 in 10.0 mi East 18.4 mph - N/A   Overcast
6:53 AM 32.0 °F 21.6 °F 24.1 °F 73% 29.96 in 10.0 mi ENE 15.0 mph - N/A   Overcast
7:53 AM 32.0 °F 21.2 °F 25.0 °F 75% 29.94 in 10.0 mi ENE 16.1 mph 24.2 mph N/A   Overcast
8:53 AM 33.1 °F 23.0 °F 25.0 °F 72% 29.94 in 10.0 mi ENE 15.0 mph - N/A   Overcast
9:53 AM 34.0 °F 23.0 °F 25.0 °F 70% 29.92 in 10.0 mi ENE 18.4 mph 26.5 mph N/A   Overcast
10:53 AM 37.0 °F 26.7 °F 27.0 °F 67% 29.88 in 10.0 mi NE 19.6 mph 25.3 mph N/A   Overcast
11:53 AM 36.0 °F 25.6 °F 27.0 °F 70% 29.86 in 10.0 mi ENE 18.4 mph - N/A   Overcast
12:53 PM 36.0 °F 25.6 °F 28.0 °F 73% 29.84 in 10.0 mi ENE 18.4 mph 26.5 mph N/A   Overcast
1:16 PM 35.6 °F 25.5 °F 28.4 °F 75% 29.80 in 10.0 mi NE 17.3 mph - N/A   Overcast
1:53 PM 36.0 °F 25.3 °F 27.0 °F 70% 29.81 in 10.0 mi ENE 19.6 mph - N/A   Overcast
2:53 PM 35.1 °F 23.5 °F 26.1 °F 70% 29.78 in 10.0 mi NE 21.9 mph 32.2 mph N/A   Overcast
3:35 PM 33.8 °F 21.6 °F 26.6 °F 75% 29.74 in 10.0 mi NE 23.0 mph 29.9 mph N/A   Overcast
3:53 PM 34.0 °F 23.8 °F 27.0 °F 75% 29.75 in 10.0 mi NE 16.1 mph 24.2 mph N/A   Overcast
4:53 PM 33.1 °F 21.2 °F 26.1 °F 75% 29.74 in 10.0 mi NNE 20.7 mph 27.6 mph N/A   Overcast
5:53 PM 33.1 °F 21.9 °F 26.1 °F 75% 29.75 in 10.0 mi NNE 18.4 mph 25.3 mph N/A   Overcast
7:53 PM 34.0 °F 22.4 °F 27.0 °F 75% 29.78 in 9.0 mi NNE 20.7 mph 29.9 mph 0.00 in   Overcast
8:15 PM 33.8 °F 22.8 °F 24.8 °F 70% 29.75 in 10.0 mi NNE 18.4 mph 26.5 mph N/A   Overcast
8:53 PM 33.1 °F 21.9 °F 24.1 °F 70% 29.78 in 10.0 mi North 18.4 mph 27.6 mph N/A   Overcast
9:53 PM 33.1 °F 21.9 °F 25.0 °F 72% 29.78 in 10.0 mi North 18.4 mph 26.5 mph N/A   Overcast
10:53 PM 34.0 °F 21.8 °F 24.1 °F 67% 29.77 in 10.0 mi NNE 23.0 mph 28.8 mph N/A   Overcast
11:46 PM 33.8 °F 21.9 °F 24.8 °F 70% 29.74 in 10.0 mi NNE 21.9 mph 31.1 mph N/A   Overcast
11:53 PM 33.1 °F 20.9 °F 25.0 °F 72% 29.76 in 10.0 mi NNE 21.9 mph 31.1 mph N/A   Overcast